This is the latest recevied weather packets stored in our database for station/object N3SBK. If no packets are shown the sender has not sent any weather packets the latest 10 day(s).
| Time | Temp. | Humidity | Pressure | Rain* | Wind** | Luminosity | Snow |
|---|---|---|---|---|---|---|---|
| 1788045315 | 22.78° C | 62% | 1013.7 hPa | 0 mm | - | 15 W/m² | - |
| 1788045011 | 22.78° C | 63% | 1013.7 hPa | 0 mm | - | 21 W/m² | - |
| 1788044709 | 23.33° C | 63% | 1013.6 hPa | 0 mm | - | 30 W/m² | - |
| 1788044405 | 23.33° C | 63% | 1013.6 hPa | 0 mm | - | 39 W/m² | - |
| 1788044099 | 23.33° C | 61% | 1013.6 hPa | 0 mm | - | 37 W/m² | - |
| 1788043795 | 23.33° C | 61% | 1013.5 hPa | 0 mm | - | 29 W/m² | - |
| 1788043495 | 23.89° C | 60% | 1013.5 hPa | 0 mm | - | 22 W/m² | - |
| 1788043189 | 23.89° C | 59% | 1013.5 hPa | 0 mm | - | 19 W/m² | - |
| 1788042884 | 23.89° C | 60% | 1013.4 hPa | 0 mm | - | 17 W/m² | - |
| 1788042584 | 23.89° C | 58% | 1013.4 hPa | 0 mm | - | 27 W/m² | - |
| 1788042284 | 24.44° C | 60% | 1013.6 hPa | 0 mm | - | 28 W/m² | - |
| 1788041980 | 24.44° C | 56% | 1013.7 hPa | 0 mm | - | 27 W/m² | - |
| 1788041675 | 24.44° C | 57% | 1013.5 hPa | 0 mm | - | 34 W/m² | - |
| 1788041370 | 25° C | 56% | 1013.5 hPa | 0 mm | - | 32 W/m² | - |
| 1788041070 | 25° C | 54% | 1013.7 hPa | 0 mm | - | 29 W/m² | - |
| 1788040768 | 25° C | 54% | 1013.7 hPa | 0 mm | - | 30 W/m² | - |
| 1788040462 | 25.56° C | 53% | 1013.3 hPa | 0 mm | - | 34 W/m² | - |
| 1788040159 | 25.56° C | 51% | 1013.3 hPa | 0 mm | - | 34 W/m² | - |
| 1788039858 | 25.56° C | 50% | 1013.6 hPa | 0 mm | - | 48 W/m² | - |
| 1788039554 | 26.11° C | 49% | 1013.6 hPa | 0 mm | - | 37 W/m² | - |
| 1788039249 | 27.22° C | 48% | 1013.7 hPa | 0 mm | - | 42 W/m² | - |
| 1788038949 | 27.22° C | 47% | 1013.6 hPa | 0 mm | - | 218 W/m² | - |
| 1788038644 | 27.22° C | 47% | 1013.5 hPa | 0 mm | - | 232 W/m² | - |
| 1788038344 | 27.22° C | 45% | 1013.5 hPa | 0 mm | - | 248 W/m² | - |
| 1788038039 | 27.22° C | 47% | 1013.7 hPa | 0 mm | - | 253 W/m² | - |
* Rain latest hour (hover to see other rain measurements)
** Current wind speed in m/s (hover to see current wind gust speed)